Weather History for Rickenbacker, OH

Change the Weather History Date:

Monday, September 23, 2013

  Actual Average Record
Temperature  
Mean Temperature 54 °F -  
Max Temperature 65 °F 72 °F 94 °F (2010)
Min Temperature 44 °F 51 °F 38 °F (2012)
Degree Days  
Heating Degree Days 10    
Growing Degree Days 4 (Base 50)    
Moisture  
Dew Point 42 °F    
Average Humidity 66    
Maximum Humidity 87    
Minimum Humidity 39    
Precipitation  
Precipitation 0.00 in - - ()
Sea Level Pressure  
Sea Level Pressure 30.10 in    
Wind  
Wind Speed 5 mph (ENE)    
Max Wind Speed 12 mph    
Max Gust Speed 16 mph    
Visibility 10 miles    
Events      
Averages and records for this station are not official NWS values.
T = Trace of Precipitation, MM = Missing Value Source: NWS Daily Summary

Daily Weather History Graph

Daily Weather History Graph

Search for Another Location

Airport:

Trip Planner

Search our weather history database for the weather conditions in past years. The results will help you decide how hot, cold, wet, or windy it might be!

Date:

Astronomy

Sep. 23, 2013 Rise Set
Actual Time 7:20 AM EDT 7:26 PM EDT
Civil Twilight 6:53 AM EDT 7:53 PM EDT
Nautical Twilight 6:22 AM EDT 8:25 PM EDT
Astronomical Twilight 5:49 AM EDT 8:57 PM EDT
Moon 9:58 PM EDT (9/23) 11:38 AM EDT (9/23)
Length of Visible Light 13h 00m
Length of Day
12h 06m
Waning Gibbous, 81% of the Moon is Illuminated
Sep 23
Waning Gibbous
Sep 26
Last Quarter
Oct 4
New
Oct 11
First Quarter
Oct 18
Full

Hourly Weather History & Observations

Time (EDT) Temp. Windchill Dew Point Humidity Pressure Visibility Wind Dir Wind Speed Gust Speed Precip Events Conditions
12:15 AM 49.3 °F - 43.0 °F 79% 30.04 in 10.0 mi ENE 4.6 mph - N/A   Clear
12:35 AM 48.4 °F - 42.8 °F 81% 30.04 in 10.0 mi NE 4.6 mph - N/A   Clear
12:55 AM 48.2 °F - 42.8 °F 82% 30.04 in 10.0 mi NE 4.6 mph - N/A   Clear
1:15 AM 48.2 °F - 42.8 °F 82% 30.05 in 10.0 mi NE 5.8 mph - N/A   Clear
1:35 AM 47.8 °F - 42.8 °F 83% 30.05 in 10.0 mi NE 3.5 mph - N/A   Clear
1:55 AM 47.3 °F - 42.6 °F 84% 30.05 in 10.0 mi NE 3.5 mph - N/A   Clear
2:15 AM 48.0 °F - 43.0 °F 83% 30.05 in 10.0 mi NNE 3.5 mph - N/A   Clear
2:35 AM 48.4 °F - 43.2 °F 82% 30.06 in 10.0 mi NNE 3.5 mph - N/A   Clear
2:55 AM 48.9 °F - 43.2 °F 80% 30.06 in 10.0 mi NNE 3.5 mph - N/A   Clear
3:15 AM 48.4 °F - 43.0 °F 82% 30.06 in 10.0 mi NNE 3.5 mph - N/A   Clear
3:35 AM 48.2 °F - 42.8 °F 82% 30.06 in 10.0 mi NNE 3.5 mph - N/A   Clear
3:55 AM 48.2 °F - 42.8 °F 82% 30.06 in 10.0 mi NNE 4.6 mph - N/A   Clear
4:15 AM 48.0 °F - 42.8 °F 82% 30.06 in 10.0 mi NNE 3.5 mph - N/A   Clear
4:35 AM 47.5 °F - 42.4 °F 83% 30.06 in 10.0 mi NNE 3.5 mph - N/A   Clear
4:55 AM 46.4 °F 44.3 °F 41.9 °F 84% 30.06 in 10.0 mi NE 4.6 mph - N/A   Clear
5:15 AM 45.9 °F 43.6 °F 41.7 °F 85% 30.07 in 10.0 mi NNE 4.6 mph - N/A   Clear
5:35 AM 45.7 °F 44.4 °F 41.7 °F 86% 30.07 in 10.0 mi NE 3.5 mph - N/A   Clear
5:55 AM 45.7 °F 44.4 °F 41.9 °F 87% 30.08 in 10.0 mi NE 3.5 mph - N/A   Clear
6:15 AM 45.3 °F 43.0 °F 41.5 °F 87% 30.08 in 10.0 mi NE 4.6 mph - N/A   Clear
6:35 AM 45.0 °F 42.6 °F 41.0 °F 86% 30.08 in 10.0 mi NE 4.6 mph - N/A   Clear
6:55 AM 44.4 °F 41.2 °F 40.6 °F 87% 30.09 in 10.0 mi NE 5.8 mph - N/A   Clear
7:15 AM 44.1 °F 40.8 °F 40.3 °F 87% 30.09 in 10.0 mi NE 5.8 mph - N/A   Clear
7:35 AM 44.2 °F 41.8 °F 40.3 °F 86% 30.10 in 10.0 mi NE 4.6 mph - N/A   Clear
7:55 AM 45.1 °F 43.7 °F 41.2 °F 86% 30.11 in 10.0 mi ENE 3.5 mph - N/A   Clear
8:15 AM 47.1 °F - 42.8 °F 85% 30.11 in 10.0 mi ENE 3.5 mph - N/A   Clear
8:35 AM 49.3 °F - 44.2 °F 83% 30.13 in 10.0 mi Calm Calm - N/A   Clear
8:55 AM 51.3 °F - 45.7 °F 81% 30.13 in 10.0 mi ENE 4.6 mph - N/A   Clear
9:15 AM 53.1 °F - 46.6 °F 79% 30.13 in 10.0 mi East 4.6 mph - N/A   Clear
9:35 AM 54.9 °F - 47.1 °F 75% 30.14 in 10.0 mi ENE 4.6 mph - N/A   Clear
9:55 AM 56.7 °F - 46.9 °F 70% 30.14 in 10.0 mi NE 5.8 mph - N/A   Clear
10:15 AM 57.9 °F - 45.3 °F 63% 30.15 in 10.0 mi ENE 9.2 mph - N/A   Clear
10:35 AM 59.0 °F - 43.9 °F 57% 30.15 in 10.0 mi ENE 10.4 mph - N/A   Clear
10:55 AM 59.9 °F - 43.0 °F 54% 30.15 in 10.0 mi ENE 9.2 mph - N/A   Clear
11:15 AM 60.4 °F - 41.0 °F 49% 30.15 in 10.0 mi NE 6.9 mph - N/A   Scattered Clouds
11:35 AM 61.0 °F - 39.9 °F 46% 30.14 in 10.0 mi NE 8.1 mph - N/A   Scattered Clouds
11:55 AM 61.7 °F - 39.7 °F 44% 30.14 in 10.0 mi NE 5.8 mph 9.2 mph N/A   Scattered Clouds
12:15 PM 62.6 °F - 40.3 °F 44% 30.14 in 10.0 mi ENE 6.9 mph - N/A   Scattered Clouds
12:35 PM 63.0 °F - 39.9 °F 43% 30.14 in 10.0 mi ENE 6.9 mph - N/A   Scattered Clouds
12:55 PM 63.3 °F - 40.1 °F 43% 30.14 in 10.0 mi ENE 10.4 mph - N/A   Scattered Clouds
1:15 PM 64.0 °F - 39.2 °F 40% 30.13 in 10.0 mi East 5.8 mph - N/A   Scattered Clouds
1:35 PM 64.4 °F - 39.4 °F 40% 30.13 in 10.0 mi East 10.4 mph - N/A   Scattered Clouds
2:15 PM 64.8 °F - 39.4 °F 39% 30.12 in 10.0 mi NE 10.4 mph - N/A   Clear
2:35 PM 64.9 °F - 39.2 °F 39% 30.11 in 10.0 mi ENE 6.9 mph - N/A   Clear
2:55 PM 65.5 °F - 40.8 °F 41% 30.11 in 10.0 mi East 10.4 mph - N/A   Clear
3:15 PM 65.1 °F - 40.5 °F 40% 30.11 in 10.0 mi ENE 9.2 mph - N/A   Clear
3:35 PM 64.9 °F - 40.6 °F 41% 30.10 in 10.0 mi NNE 9.2 mph - N/A   Clear
3:55 PM 65.1 °F - 41.0 °F 41% 30.10 in 10.0 mi NE 11.5 mph 16.1 mph N/A   Clear
4:15 PM 64.9 °F - 40.6 °F 41% 30.10 in 10.0 mi ENE 8.1 mph - N/A   Clear
4:35 PM 65.1 °F - 41.2 °F 42% 30.10 in 10.0 mi ENE 6.9 mph - N/A   Clear
4:55 PM 64.9 °F - 41.4 °F 42% 30.10 in 10.0 mi NE 6.9 mph - N/A   Clear
5:15 PM 64.6 °F - 41.7 °F 43% 30.10 in 10.0 mi ENE 11.5 mph - N/A   Clear
5:35 PM 63.9 °F - 41.7 °F 44% 30.10 in 10.0 mi ENE 10.4 mph - N/A   Clear
5:55 PM 63.5 °F - 41.5 °F 45% 30.10 in 10.0 mi ENE 8.1 mph - N/A   Clear
6:15 PM 62.8 °F - 41.7 °F 46% 30.10 in 10.0 mi ENE 9.2 mph - N/A   Clear
6:35 PM 61.9 °F - 41.7 °F 48% 30.10 in 10.0 mi East 8.1 mph - N/A   Clear
6:55 PM 60.8 °F - 42.1 °F 50% 30.10 in 10.0 mi East 6.9 mph - N/A   Clear
7:15 PM 59.2 °F - 42.3 °F 53% 30.10 in 10.0 mi East 5.8 mph - N/A   Clear
7:35 PM 57.4 °F - 42.8 °F 58% 30.09 in 10.0 mi East 5.8 mph - N/A   Clear
7:55 PM 55.9 °F - 43.3 °F 63% 30.10 in 10.0 mi East 5.8 mph - N/A   Clear
8:15 PM 54.9 °F - 43.7 °F 66% 30.10 in 10.0 mi East 5.8 mph - N/A   Clear
8:35 PM 54.1 °F - 43.7 °F 68% 30.10 in 10.0 mi East 4.6 mph - N/A   Clear
8:55 PM 53.6 °F - 43.7 °F 69% 30.11 in 10.0 mi East 5.8 mph - N/A   Clear
9:15 PM 52.9 °F - 43.7 °F 71% 30.11 in 10.0 mi East 4.6 mph - N/A   Clear
9:35 PM 52.3 °F - 43.5 °F 72% 30.10 in 10.0 mi East 4.6 mph - N/A   Clear
9:55 PM 51.6 °F - 43.2 °F 73% 30.11 in 10.0 mi East 4.6 mph - N/A   Clear
10:15 PM 51.3 °F - 43.2 °F 74% 30.11 in 10.0 mi ENE 3.5 mph - N/A   Clear
10:35 PM 50.7 °F - 43.0 °F 75% 30.11 in 10.0 mi ENE 3.5 mph - N/A   Clear
10:55 PM 49.8 °F - 43.0 °F 77% 30.11 in 10.0 mi ENE 3.5 mph - N/A   Clear
11:15 PM 49.1 °F - 43.0 °F 79% 30.12 in 10.0 mi Calm Calm - N/A   Clear
11:35 PM 49.1 °F - 42.8 °F 79% 30.12 in 10.0 mi NE 4.6 mph - N/A   Clear
11:55 PM 48.0 °F - 42.4 °F 81% 30.12 in 10.0 mi NE 5.8 mph - N/A   Clear